JO-97
1 43803U 18099AX  24352.60301474  .00018058  00000-0  98603-3 0  9997
2 43803  97.4947  47.7567 0009237  38.9205 321.2690 15.14346189330386
Suomi 100
1 43804U 18099AY  24352.72010435  .00016811  00000-0  95683-3 0  9995
2 43804  97.5012  47.5389 0014516  35.8690 324.3513 15.12823282330369
ISAT
1 43879U 18111D   24352.48601469  .00027858  00000-0  12976-2 0  9994
2 43879  97.6069 258.2331 0013648  84.6877 275.5914 15.19788827327164
UWE-4
1 43880U 18111E   24352.51366699  .00021848  00000-0  10821-2 0  9993
2 43880  97.5998 257.6992 0016715  94.1764 266.1380 15.17665690327153
Sparrow
1 43881U 18111F   24352.71228709  .00028491  00000-0  12981-2 0  9995
2 43881  97.6182 260.7752 0010415 114.6616 245.5704 15.20581067325275
Prox-1
1 44339U 19036A   24352.73381276  .00020908  00000-0  30819-2 0  9997
2 44339  23.9978 118.6672 0006636 257.3669 102.6084 14.73828827292377
SONATE
1 44400U 19038Q   24352.56699586  .00062179  00000-0  10713-2 0  9992
2 44400  97.7120 356.8803 0012259 154.6713 205.5142 15.50774473302321
Taurus 1
1 44530U 19059C   24352.68751141  .00014060  00000-0  28592-2 0  9998
2 44530  98.5900 118.6378 0010776 210.8516 149.2051 14.61160130278504
Duchifat 3
1 44854U 19089C   24352.45396480  .00037913  00000-0  13153-2 0  9995
2 44854  36.9512   7.1842 0012026 197.9830 162.0497 15.28828224276201
TO-108
1 44881U 19093C   24352.67999717  .00002306  00000-0  27708-3 0  9996
2 44881  97.8128  65.8900 0015424  83.0674 277.2294 14.84844776270267
FloripaSat 1
1 44885U 19093G   24352.73859983  .00010507  00000-0  96854-3 0  9997
2 44885  97.8304  74.3549 0012326  68.9059 291.3478 14.94812790270744
RS-44
1 44909U 19096E   24352.44594430  .00000015  00000-0  20344-4 0  9993
2 44909  82.5214 342.9979 0217158 343.0471  16.3450 12.79737016232413
UPMSat 2
1 46276U 20061E   24352.26166157  .00040591  00000-0  80018-3 0  9993
2 46276  97.2724  57.6010 0001375 144.0782 216.0560 15.47094747238347
AmicalSat
1 46287U 20061R   24352.72573653  .00391641  00000-0  19295-2 0  9992
2 46287  97.3138  63.6728 0003044 271.8537  88.2383 15.81102812238022
SALSAT
1 46495U 20068K   24352.57072451  .00013340  00000-0  65256-3 0  9999
2 46495  97.8412 317.3659 0014495  49.8987 310.3514 15.18250161232085
CubeSX-Sirius-HSE
1 47951U 21022V   24352.74149815  .00068144  00000-0  15150-2 0  9995
2 47951  97.4400 252.3586 0008067 183.5423 176.5769 15.43393877206694
CubeSX-HSE
1 47952U 21022W   24352.73490662  .00065638  00000-0  14433-2 0  9992
2 47952  97.4397 252.5020 0008196 182.3060 177.8151 15.43731673206703
KSU-Cubesat
1 47954U 21022Y   24352.68801854  .00113498  00000-0  17604-2 0  9998
2 47954  97.4404 255.2553 0007167 159.0210 201.1339 15.53573282206597
GRBAlpha
1 47959U 21022AD  24352.69327629  .00068583  00000-0  15092-2 0  9990
2 47959  97.4397 252.6269 0008058 182.6611 177.4595 15.43697518205524
Orbicraft-Zorkiy
1 47960U 21022AE  24352.74168012  .00091384  00000-0  16295-2 0  9998
2 47960  97.4428 255.0052 0006957 168.7574 191.3834 15.49738620206345
TUBIN
1 48900U 21059X   24352.69481608  .00040092  00000-0  91625-3 0  9997
2 48900  97.6622 144.4702 0005392 152.9214 207.2315 15.42724152193084
LEDSAT
1 49069U 21073D   24352.69862007  .00046115  00000-0  12051-2 0  9993
2 49069  97.4157  63.9391 0014237 353.7516   6.3549 15.38529044184529
CUTE
1 49263U 21088D   24352.66591273  .00053870  00000-0  15799-2 0  9994
2 49263  97.4746  58.9310 0011262 150.8551 209.3322 15.34935717177625
TeikyoSat 4
1 49396U 21102B   24352.72058974  .00004460  00000-0  30744-3 0  9990
2 49396  97.4361  31.3234 0013282  16.5618 343.6041 15.06250103170363
Z-Sat
1 49399U 21102E   24352.70523107  .00007674  00000-0  45162-3 0  9996
2 49399  97.4067  33.4690 0018738 351.4800   8.6110 15.11764759170686
KOSEN 1
1 49402U 21102H   24352.63003192  .00011710  00000-0  60635-3 0  9998
2 49402  97.3984  35.6585 0016349 331.0077  29.0246 15.16248664170898
HO-113
1 50466U 21131B   24352.70685263  .00001379  00000-0  44849-3 0  9994
2 50466  98.5206  76.9262 0003208 304.6462  55.4424 14.40355604156416
IRIS-A
1 51044U 22002BN  24352.58403635  .00068505  00000-0  12653-2 0  9993
2 51044  97.3592  60.1041 0004773  96.2088 263.9707 15.48837607162627
Foresail-1
1 52766U 22057AL  24352.41666711  .00059863  00000-0  11015-2 0  9991
2 52766  97.5976 124.4406 0007112 198.4010 161.6984 15.48968287142635
SNUGLITE 2
1 52899U 22065F   24352.33533173  .00002729  00000-0  55056-3 0  9996
2 52899  98.1428 130.4006 0006666 304.1284  55.9284 14.62240440131013
IO-117
1 53106U 22080B   24346.40082951 -.00000003  00000-0  00000+0 0  9998
2 53106  70.1337 130.9545 0008301  67.0662 293.0873  6.42557702 56656
FO-118
1 54684U 22167C   24352.72836529  .00146271  00000-0  19049-2 0  9999
2 54684  97.6141 145.1537 0006858 225.9278 134.1413 15.58218262112567
SSS-2B
1 56184U 23054G   24352.77170018  .01297278  10092-2  18472-2 0  9999
2 56184  97.3296 256.7354 0007399 120.3024 239.8990 16.05776200 94720
SO-120
1 56992U 23084BU  24352.60333397  .00187503  00000-0  21783-2 0  9995
2 56992  97.5365 117.4529 0003057  72.6471 287.5120 15.61120318 84419
MRC-100
1 56993U 23084BV  24352.32623555  .00501224  00000-0  24313-2 0  9995
2 56993  97.5298 119.2372 0003963 320.8001  39.2979 15.81160293 84517
UmKA 1 (RS40S)
1 57172U 23091G   24352.82098891  .00011811  00000-0  69283-3 0  9991
2 57172  97.5866  43.2580 0014776 208.9646 151.0765 15.11820713 81190
CubeBel-2 (EU11S)
1 57175U 23091K   24352.74129817  .00015613  00000-0  86036-3 0  9997
2 57175  97.5866  43.5055 0012664 219.6684 140.3622 15.14023480 81202
VERONIKA
1 58261U 23174F   24352.72178869  .00056479  00000-0  15475-2 0  9998
2 58261  97.4400  67.3974 0008418 313.6873  46.3672 15.37080463 61738
KAFASAT
1 58317U 23174BP  24352.57132498  .00109604  00000-0  20903-2 0  9992
2 58317  97.4325  69.2792 0007490 282.2041  77.8370 15.47733112 61867
ENSO
1 58470U 23185J   24352.73418678  .00045545  00000-0  12811-2 0  9991
2 58470  97.4020  58.7624 0009466 352.7150   7.3955 15.36307561 58186
EIRSAT-1
1 58472U 23185L   24352.74662495  .00054559  00000-0  14125-2 0  9997
2 58472  97.4011  59.1662 0008740 351.5175   8.5921 15.38839769 58215
SONATE-2
1 59112U 24043Q   24352.63369404  .00023423  00000-0  88448-3 0  9991
2 59112  97.4960 115.7144 0012921  14.9960 345.1659 15.26935753 43716
MO-122
1 60209U 24125G   24352.54645831  .00026000  00000-0  97258-3 0  9995
2 60209  97.2967 200.9627 0024327  40.9502 319.3558 15.27018987 25316
GRBBeta
1 60237U 24128C   24352.64046238  .00009137  00000-0  74136-3 0  9998
2 60237  61.9941 324.8177 0031872  14.6429 345.5577 14.99851126 24085
Curium One
1 60242U 24128H   24352.33300304  .00014390  00000-0  11373-2 0  9997
2 60242  61.9846 325.9134 0031995   6.9704 353.1824 15.00512856 24049
ROBUSTA-3A
1 60243U 24128J   24352.35851608  .00014016  00000-0  11177-2 0  9995
2 60243  61.9912 326.1587 0030045   4.7729 355.3641 15.00232618 24043
CatSat
1 60246U 24125J   24352.54621297  .00019424  00000-0  75933-3 0  9994
2 60246  97.2769 201.6834 0047829 354.2610   5.8074 15.24812079 23418
CySat-1
1 61501U 98067WZ  24352.64226112  .00482200  00000-0  23334-2 0  9996
2 61501  51.6277 119.7783 0014025 309.3045  50.6712 15.80533675 11023
AO-123
1 61781U 24199AY  24352.66503977  .00014290  00000-0  58962-3 0  9996
2 61781  97.3785 216.7860 0019225  91.2452 269.0988 15.23980892 50358
